This demonstration page uses our WeatherBlox Daily Observations layout. Learn more.

Left ArrowRight Arrow

38.80484, -77.04692

Hourly Observations for April 10, 2016

Temp ( °F °C ) Dew Point ( °F °C ) Humidity (%) Winds ( mph kmh ) Pressure ( in mb ) Visibility ( mi km ) Precip ( " mm )
12:52 am 00:52 Clear 35 1.7 15 -9.4 44 44 NW 17 28 30.23 1024 10 16 0.00 0.00
1:52 am 01:52 Clear 34 1.1 15 -9.4 46 46 WNW 13 20 30.26 1025 10 16 0.00 0.00
2:52 am 02:52 Clear 33 0.6 16 -8.9 49 49 WNW 10 17 30.28 1025 10 16 0.00 0.00
3:52 am 03:52 Clear 32 0 15 -9.4 50 50 NW 12 19 30.29 1026 10 16 0.00 0.00
4:52 am 04:52 Clear 32 0 15 -9.4 50 50 NW 9 15 30.31 1026 10 16 0.00 0.00
5:52 am 05:52 Clear 31 -0.6 16 -8.9 54 54 NNW 8 13 30.33 1027 10 16 0.00 0.00
6:52 am 06:52 Mostly Sunny 31 -0.6 16 -8.9 54 54 NW 9 15 30.36 1028 10 16 0.00 0.00
7:52 am 07:52 Mostly Sunny 33 0.6 17 -8.3 52 52 NW 9 15 30.38 1029 10 16 0.00 0.00
8:52 am 08:52 Mostly Sunny 36 2.2 18 -7.8 48 48 NW 8 13 30.41 1030 10 16 0.00 0.00
9:52 am 09:52 Mostly Sunny 38 3.3 18 -7.8 44 44 N 5 7 30.42 1030 10 16 0.00 0.00
10:52 am 10:52 Mostly Sunny 39 3.9 17 -8.3 41 41 ESE 5 7 30.42 1030 10 16 0.00 0.00
11:52 am 11:52 Partly Cloudy 42 5.6 19 -7.2 40 40 ENE 6 9 30.41 1030 10 16 0.00 0.00
12:52 pm 12:52 Partly Cloudy 43 6.1 20 -6.7 40 40 S 7 11 30.40 1029 10 16 0.00 0.00
1:52 pm 13:52 Mostly Cloudy 47 8.3 21 -6.1 36 36 S 10 17 30.37 1028 10 16 0.00 0.00
2:52 pm 14:52 Mostly Cloudy 48 8.9 18 -7.8 30 30 SSW 10 17 30.35 1028 10 16 0.00 0.00
3:52 pm 15:52 Mostly Cloudy 49 9.4 19 -7.2 31 31 S 8 13 30.32 1027 10 16 0.00 0.00
4:52 pm 16:52 Mostly Cloudy 51 10.6 18 -7.8 27 27 SW 7 11 30.31 1026 10 16 0.00 0.00
5:52 pm 17:52 Mostly Cloudy 52 11.1 18 -7.8 26 26 S 12 19 30.29 1026 10 16 0.00 0.00
6:52 pm 18:52 Mostly Cloudy 51 10.6 21 -6.1 31 31 SSE 9 15 30.29 1026 10 16 0.00 0.00
7:52 pm 19:52 Mostly Cloudy 50 10 23 -5 35 35 S 12 19 30.28 1026 10 16 0.00 0.00
8:52 pm 20:52 Mostly Cloudy 49 9.4 24 -4.4 38 38 SSE 10 17 30.29 1026 10 16 0.00 0.00
9:52 pm 21:52 Mostly Cloudy 46 7.8 31 -0.6 56 56 SSE 9 15 30.29 1026 10 16 0.00 0.00
10:52 pm 22:52 Mostly Cloudy 46 7.8 33 0.6 61 61 SSE 15 24 30.29 1026 10 16 0.00 0.00
11:52 pm 23:52 Mostly Cloudy 47 8.3 33 0.6 59 59 S 14 22 30.29 1026 10 16 0.00 0.00

Powered by AerisWeather